Chicago O'Hare, IL

1:15 PM CST on February 10, 2016 (GMT -0600)
Chicago-O'Hare International

Weather History for KORD - February, 2013

Change the Weather History Date:

Sunday, February 24, 2013

  Actual Average Record
Temperature  
Mean Temperature 28 °F 31 °F  
Max Temperature 39 °F 38 °F 64 °F (1930)
Min Temperature 17 °F 23 °F -11 °F (1873)
Degree Days  
Heating Degree Days 37 34  
Month to date heating degree days 953 909  
Since 1 July heating degree days 4272 4599  
Cooling Degree Days 0 0  
Month to date cooling degree days 0 0  
Year to date cooling degree days 0 0  
Moisture  
Dew Point 18 °F    
Average Humidity 66    
Maximum Humidity 84    
Minimum Humidity 48    
Precipitation  
Precipitation 0.00 in 0.08 in 1.11 in (2001)
Month to date precipitation 2.31 1.48  
Year to date precipitation 5.94 3.21  
Snow  
Snow 0.00 in 0.30 in 6.50 in (1965)
Month to date snowfall 10.1 8.0  
Since 1 July snowfall 13.6 28.7  
Snow Depth 2.00 in    
Sea Level Pressure  
Sea Level Pressure 30.09 in    
Wind  
Wind Speed 4 mph (West)    
Max Wind Speed 9 mph    
Max Gust Speed 13 mph    
Visibility 10 miles    
Events      
T = Trace of Precipitation, MM = Missing Value Source: NWS Daily Summary

Daily Weather History Graph

Daily Weather History Graph

Search for Another Location

Airport or City:

Trip Planner

Search our weather history database for the weather conditions in past years. The results will help you decide how hot, cold, wet, or windy it might be!

Date:

Astronomy

Feb. 24, 2013 Rise Set
Actual Time 6:34 AM CST 5:36 PM CST
Civil Twilight 6:05 AM CST 6:04 PM CST
Nautical Twilight 5:33 AM CST 6:36 PM CST
Astronomical Twilight 5:01 AM CST 7:09 PM CST
Moon 4:46 PM CST (2/24) 5:31 AM CST (2/24)
Length of Visible Light 11h 58m
Length of Day
11h 02m
Waxing Gibbous, 99% of the Moon is Illuminated
Feb 24
Waxing Gibbous
Feb 25
Full
Mar 4
Last Quarter
Mar 11
New
Mar 19
First Quarter

Hourly Weather History & Observations

Time (CST) Temp. Windchill Dew Point Humidity Pressure Visibility Wind Dir Wind Speed Gust Speed Precip Events Conditions
12:51 AM 21.0 °F 10.6 °F 16.0 °F 81% 29.98 in 10.0 mi West 9.2 mph - N/A   Partly Cloudy
1:51 AM 21.0 °F 12.4 °F 16.0 °F 81% 29.98 in 10.0 mi West 6.9 mph - N/A   Clear
2:51 AM 19.0 °F 11.1 °F 15.1 °F 85% 29.99 in 10.0 mi West 5.8 mph - N/A   Clear
3:51 AM 19.0 °F 10.0 °F 14.0 °F 81% 30.00 in 10.0 mi West 6.9 mph - N/A   Clear
4:51 AM 19.0 °F 10.0 °F 14.0 °F 81% 30.02 in 10.0 mi West 6.9 mph - N/A   Clear
5:51 AM 18.0 °F 9.8 °F 12.9 °F 81% 30.04 in 10.0 mi West 5.8 mph - N/A   Clear
6:51 AM 17.1 °F 8.7 °F 12.9 °F 84% 30.07 in 10.0 mi West 5.8 mph - N/A   Partly Cloudy
7:51 AM 19.0 °F 10.0 °F 14.0 °F 81% 30.09 in 10.0 mi WSW 6.9 mph - N/A   Partly Cloudy
8:51 AM 23.0 °F 17.0 °F 16.0 °F 74% 30.10 in 10.0 mi NW 4.6 mph - N/A   Partly Cloudy
9:51 AM 28.0 °F 21.7 °F 18.0 °F 66% 30.11 in 10.0 mi West 5.8 mph - N/A   Partly Cloudy
10:51 AM 30.9 °F 24.3 °F 19.9 °F 64% 30.12 in 10.0 mi West 6.9 mph - N/A   Partly Cloudy
11:51 AM 33.1 °F 30.0 °F 19.9 °F 59% 30.12 in 10.0 mi WSW 3.5 mph - N/A   Scattered Clouds
12:51 PM 35.1 °F 30.1 °F 21.0 °F 57% 30.11 in 10.0 mi West 5.8 mph - N/A   Scattered Clouds
1:51 PM 36.0 °F 31.1 °F 21.0 °F 55% 30.10 in 10.0 mi West 5.8 mph - N/A   Scattered Clouds
2:51 PM 37.0 °F 34.5 °F 19.9 °F 50% 30.10 in 10.0 mi WSW 3.5 mph - N/A   Scattered Clouds
3:51 PM 37.0 °F - 19.9 °F 50% 30.10 in 10.0 mi Calm Calm - N/A   Partly Cloudy
4:51 PM 37.0 °F 34.5 °F 21.0 °F 52% 30.11 in 10.0 mi West 3.5 mph - N/A   Scattered Clouds
5:51 PM 34.0 °F - 21.0 °F 59% 30.12 in 10.0 mi Calm Calm - N/A   Scattered Clouds
6:51 PM 33.1 °F 30.0 °F 21.0 °F 61% 30.13 in 10.0 mi SW 3.5 mph - N/A   Partly Cloudy
7:51 PM 32.0 °F 28.7 °F 21.9 °F 66% 30.14 in 10.0 mi WSW 3.5 mph - N/A   Partly Cloudy
8:51 PM 30.9 °F 27.5 °F 21.0 °F 67% 30.14 in 10.0 mi North 3.5 mph - N/A   Partly Cloudy
9:51 PM 26.1 °F - 21.0 °F 81% 30.14 in 10.0 mi Calm Calm - N/A   Partly Cloudy
10:51 PM 28.0 °F - 21.9 °F 78% 30.15 in 10.0 mi Calm Calm - N/A   Partly Cloudy
11:51 PM 25.0 °F - 19.9 °F 81% 30.15 in 10.0 mi Calm Calm - N/A   Partly Cloudy